Find Starlink 30953

NORAD ID: 58491 Int'l Des: 2023-186 Owner: SPXS Country: US Constellation: starlink operational
LEOCIRCULAR

リアルタイム位置

3D地球を読み込み中...

Starlink 30953について

説明を読み込み中...

次回通過

Passes for default location (London). Set your location on the main map for personalized predictions.

高度履歴

Loading altitude history...

軌道要素

1 58491U 23186U 26122.26377141 -.00001193 00000-0 -33858-4 0 9998
2 58491 43.0019 324.9425 0000617 280.8577 79.2206 15.27573691136086
Epoch: May 2, 2026 • Age: 14 hours

現在のステータス

高度 486.2 km
速度 7.62 km/s
衛星直下点 -16.66°S, 137.08°E
打ち上げ日 Dec 3, 2023
運用期間 2.4 years
タイプ internet

技術仕様

分類 Payload
質量 730.00 kg
乾燥質量 700.00 kg
総質量 730.00 kg
長さ 0.30 m
直径 4.10 m
スパン 29.00 m
形状 Box + pan
製造者 SPXS
バスタイプ Starlink V2M
フェーズステータス In Orbit
所有者/国 SPXS/US

Most Searched